Weather History for Mandan, ND

Change the Weather History Date:

Wednesday, September 25, 2013

  Actual Average (KBIS) Record (KBIS)
Temperature  
Mean Temperature 65 °F 54 °F  
Max Temperature 77 °F 68 °F 92 °F (1902)
Min Temperature 53 °F 41 °F 19 °F (1926)
Degree Days  
Heating Degree Days 0 11  
Month to date heating degree days 169  
Since 1 July heating degree days 224  
Cooling Degree Days 0 0  
Month to date cooling degree days 37  
Year to date cooling degree days 518  
Growing Degree Days 15 (Base 50)    
Moisture  
Dew Point 50 °F    
Average Humidity 61    
Maximum Humidity 88    
Minimum Humidity 36    
Precipitation  
Precipitation 0.00 in 0.04 in 0.45 in (1959)
Month to date precipitation 1.36  
Year to date precipitation 15.17  
Snow  
Snow 0.00 in 0.00 in 4.10 in (1942)
Month to date snowfall 0.1  
Since 1 July snowfall 0.1  
Since 1 September snowfall 0.1  
Snow Depth -    
Sea Level Pressure  
Sea Level Pressure 29.67 in    
Wind  
Wind Speed 12 mph (SSE)    
Max Wind Speed 26 mph    
Max Gust Speed 38 mph    
Visibility 9 miles    
Events Thunderstorm    
T = Trace of Precipitation, MM = Missing Value Source: NWS Daily Summary

Daily Weather History Graph

Daily Weather History Graph

Search for Another Location

Airport:

Trip Planner

Search our weather history database for the weather conditions in past years. The results will help you decide how hot, cold, wet, or windy it might be!

Date:

Astronomy

Sep. 25, 2013 Rise Set
Actual Time 7:34 AM CDT 7:34 PM CDT
Civil Twilight 7:04 AM CDT 8:04 PM CDT
Nautical Twilight 6:29 AM CDT 8:40 PM CDT
Astronomical Twilight 5:52 AM CDT 9:16 PM CDT
Moon 11:23 PM CDT (9/25) 2:01 PM CDT (9/25)
Length of Visible Light 13h 00m
Length of Day
11h 59m
Waning Gibbous, 64% of the Moon is Illuminated
Sep 25
Waning Gibbous
Sep 26
Last Quarter
Oct 4
New
Oct 11
First Quarter
Oct 18
Full

Hourly Weather History & Observations

Time (CDT) Temp. Dew Point Humidity Pressure Visibility Wind Dir Wind Speed Gust Speed Precip Events Conditions
12:15 AM 53.6 °F 44.6 °F 72% 29.83 in 10.0 mi SE 6.9 mph - N/A   Clear
12:35 AM 53.6 °F 44.6 °F 72% 29.83 in 10.0 mi SE 6.9 mph - N/A   Clear
12:55 AM 53.6 °F 44.6 °F 72% 29.82 in 10.0 mi SE 4.6 mph - N/A   Clear
1:15 AM 53.6 °F 44.6 °F 72% 29.82 in 10.0 mi SE 6.9 mph - N/A   Clear
1:35 AM 55.4 °F 44.6 °F 67% 29.82 in 10.0 mi SE 8.1 mph - N/A   Clear
1:55 AM 55.4 °F 44.6 °F 67% 29.81 in 10.0 mi SSE 8.1 mph - N/A   Clear
2:35 AM 57.2 °F 44.6 °F 63% 29.80 in 10.0 mi SSE 9.2 mph - N/A   Clear
2:55 AM 55.4 °F 44.6 °F 67% 29.80 in 10.0 mi SSE 9.2 mph - N/A   Clear
3:15 AM 53.6 °F 44.6 °F 72% 29.80 in 10.0 mi SSE 10.4 mph - N/A   Clear
3:35 AM 53.6 °F 44.6 °F 72% 29.79 in 10.0 mi SSE 10.4 mph - N/A   Clear
3:55 AM 53.6 °F 44.6 °F 72% 29.77 in 10.0 mi SE 8.1 mph - N/A   Clear
4:35 AM 55.4 °F 46.4 °F 72% 29.77 in 10.0 mi SSE 8.1 mph - N/A   Clear
4:55 AM 55.4 °F 46.4 °F 72% 29.76 in 10.0 mi SSE 11.5 mph 18.4 mph N/A   Clear
5:15 AM 55.4 °F 46.4 °F 72% 29.75 in 10.0 mi SSE 11.5 mph - N/A   Clear
5:35 AM 55.4 °F 46.4 °F 72% 29.75 in 10.0 mi South 10.4 mph 18.4 mph N/A   Clear
5:55 AM 55.4 °F 46.4 °F 72% 29.75 in 10.0 mi SSE 9.2 mph - N/A   Clear
6:15 AM 53.6 °F 48.2 °F 82% 29.74 in 10.0 mi SSE 8.1 mph - N/A   Clear
6:35 AM 53.6 °F 48.2 °F 82% 29.73 in 10.0 mi SSE 9.2 mph - N/A   Clear
6:55 AM 53.6 °F 50.0 °F 88% 29.73 in 10.0 mi SE 9.2 mph - N/A   Clear
7:15 AM 55.4 °F 50.0 °F 82% 29.73 in 10.0 mi SSE 11.5 mph 17.3 mph N/A   Clear
7:35 AM 55.4 °F 50.0 °F 82% 29.73 in 9.0 mi SE 11.5 mph - N/A   Clear
7:55 AM 55.4 °F 50.0 °F 82% 29.72 in 9.0 mi SE 6.9 mph - N/A   Clear
8:15 AM 57.2 °F 50.0 °F 77% 29.71 in 3.0 mi SSE 12.7 mph 18.4 mph N/A   Haze
8:35 AM 59.0 °F 50.0 °F 72% 29.70 in 2.5 mi SSE 16.1 mph 26.5 mph N/A   Haze
8:55 AM 60.8 °F 51.8 °F 72% 29.71 in 10.0 mi SSE 16.1 mph 26.5 mph N/A   Clear
9:15 AM 60.8 °F 50.0 °F 68% 29.71 in 7.0 mi SSE 20.7 mph 31.1 mph N/A   Clear
9:35 AM 62.6 °F 51.8 °F 68% 29.71 in 7.0 mi SSE 19.6 mph 29.9 mph N/A   Clear
9:55 AM 62.6 °F 51.8 °F 68% 29.71 in 10.0 mi SSE 16.1 mph 24.2 mph N/A   Clear
10:15 AM 64.4 °F 53.6 °F 68% 29.70 in 9.0 mi SSE 15.0 mph 24.2 mph N/A   Clear
10:35 AM 66.2 °F 51.8 °F 60% 29.70 in 8.0 mi SSE 20.7 mph 29.9 mph N/A   Clear
10:55 AM 66.2 °F 53.6 °F 64% 29.69 in 10.0 mi SSE 19.6 mph 26.5 mph N/A   Clear
11:15 AM 68.0 °F 51.8 °F 56% 29.69 in 10.0 mi South 25.3 mph 38.0 mph N/A   Clear
11:35 AM 69.8 °F 51.8 °F 53% 29.69 in 10.0 mi SSE 23.0 mph 29.9 mph N/A   Clear
11:55 AM 69.8 °F 53.6 °F 56% 29.68 in 10.0 mi SSE 17.3 mph 25.3 mph N/A   Clear
12:15 PM 71.6 °F 53.6 °F 53% 29.67 in 10.0 mi SSE 18.4 mph 29.9 mph N/A   Clear
12:35 PM 71.6 °F 53.6 °F 53% 29.65 in 10.0 mi SSE 18.4 mph 29.9 mph N/A   Clear
1:15 PM 71.6 °F 50.0 °F 46% 29.63 in 10.0 mi SSE 23.0 mph 33.4 mph N/A   Clear
1:35 PM 73.4 °F 50.0 °F 44% 29.62 in 9.0 mi SSE 20.7 mph 38.0 mph N/A   Clear
1:55 PM 73.4 °F 51.8 °F 47% 29.61 in 10.0 mi SE 18.4 mph 27.6 mph N/A   Clear
2:15 PM 75.2 °F 50.0 °F 41% 29.60 in 8.0 mi SSE 26.5 mph 34.5 mph N/A   Clear
2:35 PM 77.0 °F 50.0 °F 39% 29.60 in 5.0 mi SSE 19.6 mph 33.4 mph N/A   Haze
2:55 PM 77.0 °F 48.2 °F 36% 29.59 in 2.5 mi SSE 21.9 mph 34.5 mph N/A   Haze
3:15 PM 75.2 °F 48.2 °F 38% 29.59 in 10.0 mi South 20.7 mph 31.1 mph N/A   Clear
3:55 PM 75.2 °F 48.2 °F 38% 29.58 in 10.0 mi South 18.4 mph 29.9 mph N/A   Clear
4:15 PM 77.0 °F 48.2 °F 36% 29.58 in 9.0 mi South 16.1 mph 25.3 mph N/A   Clear
4:35 PM 77.0 °F 50.0 °F 39% 29.58 in 10.0 mi South 16.1 mph 21.9 mph N/A   Clear
4:55 PM 75.2 °F 50.0 °F 41% 29.58 in 10.0 mi SSE 13.8 mph 18.4 mph N/A   Clear
5:15 PM 75.2 °F 50.0 °F 41% 29.57 in 10.0 mi SSE 10.4 mph 16.1 mph N/A   Clear
5:35 PM 73.4 °F 50.0 °F 44% 29.57 in 10.0 mi SSE 10.4 mph 17.3 mph N/A   Clear
5:55 PM 73.4 °F 51.8 °F 47% 29.57 in 9.0 mi SSE 8.1 mph - N/A   Clear
6:15 PM 71.6 °F 53.6 °F 53% 29.58 in 10.0 mi SSE 4.6 mph - N/A   Clear
6:35 PM 69.8 °F 55.4 °F 60% 29.57 in 10.0 mi SE 6.9 mph - N/A   Clear
6:55 PM 68.0 °F 53.6 °F 60% 29.57 in 10.0 mi ESE 8.1 mph - N/A   Clear
7:15 PM 69.8 °F 53.6 °F 56% 29.57 in 10.0 mi East 6.9 mph - N/A   Clear
7:55 PM 68.0 °F 53.6 °F 60% 29.58 in 10.0 mi East 10.4 mph - N/A   Clear
8:15 PM 68.0 °F 53.6 °F 60% 29.58 in 10.0 mi ESE 12.7 mph - N/A   Partly Cloudy
8:35 PM 68.0 °F 53.6 °F 60% 29.58 in 10.0 mi ESE 13.8 mph - N/A   Partly Cloudy
8:55 PM 68.0 °F 53.6 °F 60% 29.58 in 10.0 mi ESE 15.0 mph - N/A   Partly Cloudy
9:15 PM 68.0 °F 53.6 °F 60% 29.58 in 10.0 mi ESE 16.1 mph 25.3 mph N/A   Partly Cloudy
9:35 PM 68.0 °F 53.6 °F 60% 29.59 in 10.0 mi ESE 16.1 mph 21.9 mph N/A   Clear
9:55 PM 68.0 °F 53.6 °F 60% 29.60 in 10.0 mi SE 15.0 mph 24.2 mph N/A   Scattered Clouds
10:15 PM 68.0 °F 53.6 °F 60% 29.60 in 10.0 mi SE 11.5 mph 20.7 mph N/A   Overcast
10:35 PM 68.0 °F 53.6 °F 60% 29.59 in 10.0 mi SE 15.0 mph - N/A   Mostly Cloudy
10:55 PM 66.2 °F 53.6 °F 64% 29.59 in 10.0 mi SE 13.8 mph 19.6 mph N/A   Mostly Cloudy
11:15 PM 68.0 °F 53.6 °F 60% 29.59 in 10.0 mi SE 15.0 mph 24.2 mph N/A   Overcast
11:35 PM 66.2 °F 55.4 °F 68% 29.59 in 10.0 mi SE 17.3 mph 23.0 mph N/A   Scattered Clouds
11:55 PM 66.2 °F 55.4 °F 68% 29.58 in 10.0 mi SE 15.0 mph 24.2 mph N/A Thunderstorm Clear